"2009-10-12 00:00:00",1319326,3.006,310,8.78,1.302,-0.691,99.08403,-3.034,-1.616,81.9,0,109.6,13.59,-2.29,272.0
"2009-10-12 00:00:30",1319327,2.693,308.1,6.68,1.128,-0.805,99.08599,-3.029,-1.658,81.9,0,109.6,13.59,-2.29,270.1
"2009-10-12 00:01:00",1319328,2.632,312,5.93,1.273,-1.147,99.08879,-3.022,-1.775,81.9,0,109.6,13.59,-2.28,274.0
"2009-10-12 00:01:30",1319329,2.658,315.4,8.83,1.215,-0.913,99.0916,-3.015,-1.699,82,0,109.6,13.6,-2.27,277.4
"2009-10-12 00:02:00",1319330,2.926,314.8,7.614,1.121,-1.252,99.09127,-3.015,-1.831,81.9,0,109.6,13.6,-2.27,276.8
"2009-10-12 00:02:30",1319331,3.707,313.4,6.877,1.17,-0.386,99.06889,-3.072,-1.8,82,0,109.6,13.6,-2.33,275.4
"2009-10-12 00:03:00",1319332,3.823,314.2,8.48,1.181,-0.775,99.07054,-3.068,-1.788,82,0,109.6,13.6,-2.33,276.2
"2009-10-12 00:03:30",1319333,4.034,323.2,5.907,1.187,-0.237,99.0739,-3.06,-1.728,82.2,0,109.6,13.6,-2.32,285.2
"2009-10-12 00:04:00",1319334,4.1,327.2,5.51,1.063,0.483,99.07419,-3.059,-1.724,82.2,0,109.6,13.6,-2.32,289.2
"2009-10-12 00:04:30",1319335,3.296,326.9,8.11,1.1,-0.112,99.07784,-3.05,-1.789,82.2,0,109.6,13.6,-2.31,288.9
"2009-10-12 00:05:00",1319336,2.474,326.4,8.18,1.12,-1.148,99.07553,-3.056,-1.857,82.1,0,109.6,13.6,-2.31,288.4
"2009-10-12 00:05:30",1319337,2.653,331.2,3.15,0.949,-1.661,99.0526,-3.114,-1.971,82,0,109.6,13.6,-2.37,293.2
"2009-10-12 00:06:00",1319338,3.427,326.5,4.948,1.338,-0.694,99.04862,-3.124,-1.794,82.2,0,109.6,13.6,-2.38,288.5
"2009-10-12 00:06:30",1319339,3.846,330.1,6.776,1.16,0.394,99.04891,-3.123,-1.822,82.2,0,109.5,13.6,-2.38,292.1
"2009-10-12 00:07:00",1319340,3.869,325.4,4.746,1.106,0.69,99.04891,-3.123,-1.736,82.3,0,109.5,13.61,-2.38,287.4
"2009-10-12 00:07:30",1319341,4.58,324.8,6.54,0.841,0.94,99.04466,-3.134,-1.812,82.3,0,109.6,13.6,-2.39,286.8
"2009-10-12 00:08:00",1319342,2.869,316,6.508,1.057,-1.006,99.02541,-3.183,-1.854,82.3,0,109.5,13.6,-2.44,278.0
"2009-10-12 00:08:30",1319343,2.441,314.4,7.364,1.002,-1.835,99.01494,-3.21,-1.945,82.3,0,109.5,13.61,-2.47,276.4
"2009-10-12 00:09:00",1319344,3.377,306.6,9.27,1.022,-0.138,99.01438,-3.211,-2.002,82.2,0,109.5,13.61,-2.47,268.6
"2009-10-12 00:09:30",1319345,3.703,315.1,8.02,1.317,-0.026,98.99937,-3.25,-1.94,82.4,0,109.4,13.61,-2.51,277.1
"2009-10-12 00:10:00",1319346,4.7,322.7,4.291,0.78,1.411,98.98097,-3.296,-1.874,82.5,0,109.5,13.61,-2.56,284.7
"2009-10-12 00:10:30",1319347,4.267,314.9,8.8,1.15,1.118,98.98097,-3.296,-1.92,82.5,0,109.5,13.61,-2.56,276.9
"2009-10-12 00:11:00",1319348,4.01,321.8,7.403,1.131,0.382,98.97559,-3.31,-1.947,82.6,0,109.5,13.61,-2.57,283.8
"2009-10-12 00:11:30",1319349,2.67,310.1,6.487,1.076,-1.578,98.95607,-3.36,-2.045,82.5,0,109.5,13.61,-2.62,272.1
"2009-10-12 00:12:00",1319350,4.354,316.3,7.819,0.923,0.307,98.94701,-3.383,-2.139,82.5,0,109.5,13.61,-2.64,278.3
"2009-10-12 00:12:30",1319351,3.605,306.7,5.982,1.184,-0.626,98.94616,-3.385,-2.071,82.7,0,109.5,13.61,-2.64,268.7
"2009-10-12 00:13:00",1319352,4.24,307.5,6.537,0.899,1.305,98.91955,-3.453,-1.958,82.8,0,109.5,13.61,-2.71,269.5
"2009-10-12 00:13:30",1319353,3.504,305.2,5.899,1.137,0.194,98.91331,-3.469,-2.064,82.8,0,109.6,13.61,-2.73,267.2
"2009-10-12 00:14:00",1319354,4.094,312,5.455,1.102,0.23,98.91442,-3.466,-2.051,82.9,0,109.5,13.61,-2.73,274.0
"2009-10-12 00:14:30",1319355,2.91,303.1,5.145,0.924,-1.848,98.89291,-3.521,-2.219,82.8,0,109.5,13.61,-2.78,265.1
"2009-10-12 00:15:00",1319356,3.75,304.4,6.697,1.222,0,98.88607,-3.538,-2.111,83,0,109.5,13.61,-2.80,266.4
"2009-10-12 00:15:30",1319357,4.032,300.2,6.54,1.17,-0.165,98.88857,-3.532,-2.175,83,0,109.5,13.61,-2.79,262.2
"2009-10-12 00:16:00",1319358,4.13,299.5,5.629,0.942,1.162,98.87005,-3.579,-2.059,83.3,0,109.5,13.61,-2.84,261.5
"2009-10-12 00:16:30",1319359,3.499,298.6,5.422,1.145,0.16,98.86945,-3.58,-2.256,83.2,0,109.5,13.61,-2.84,260.6
"2009-10-12 00:17:00",1319360,3.238,293.4,7.585,1.173,0.422,98.86208,-3.599,-2.241,83.3,0,109.5,13.62,-2.86,255.4
"2009-10-12 00:17:30",1319361,2.909,283.5,4.159,1.209,-0.636,98.84168,-3.651,-2.289,83.4,0,109.5,13.62,-2.91,245.5
"2009-10-12 00:18:00",1319362,2.742,275.8,7.542,1.214,-0.785,98.84051,-3.654,-2.416,83.4,0,109.5,13.62,-2.92,237.8
"2009-10-12 00:18:30",1319363,3.582,271.8,6.328,1.202,-0.242,98.83199,-3.676,-2.271,83.6,0,109.5,13.62,-2.94,233.8
"2009-10-12 00:19:00",1319364,4.287,281.5,3.627,0.735,1.637,98.81102,-3.729,-2.229,83.8,0,109.5,13.63,-2.99,243.5
"2009-10-12 00:19:30",1319365,3.502,279.9,7.944,1.114,0.141,98.81074,-3.73,-2.392,83.7,0,109.5,13.63,-2.99,241.9
"2009-10-12 00:20:00",1319366,3.49,281.6,7.499,1.03,0.85,98.80649,-3.741,-2.397,83.9,0,109.5,13.63,-3.00,243.6
"2009-10-12 00:20:30",1319367,2.306,283.1,10.47,1.131,-0.707,98.78581,-3.794,-2.446,83.9,0,109.4,13.63,-3.05,245.1
"2009-10-12 00:21:00",1319368,1.5,281.3,7.31,0.101,-3.233,98.77675,-3.817,-2.623,83.9,0,109.4,13.66,-3.08,243.3
"2009-10-12 00:21:30",1319369,3.11,284.8,9.57,1.194,-0.526,98.77675,-3.817,-2.422,84.2,0,109.4,13.64,-3.08,246.8
"2009-10-12 00:22:00",1319370,3.642,280.3,6.151,0.991,0.466,98.76599,-3.844,-2.419,84.3,0,109.4,13.64,-3.11,242.3
"2009-10-12 00:22:30",1319371,3.446,285.5,4.676,1.148,0.374,98.74476,-3.898,-2.485,84.4,0,109.4,13.64,-3.16,247.5
"2009-10-12 00:23:00",1319372,3.529,279.9,4.004,1.063,0.569,98.74278,-3.903,-2.468,84.5,0,109.4,13.64,-3.16,241.9
"2009-10-12 00:23:30",1319373,1.956,258.4,8.47,0.742,-2.6,98.74278,-3.903,-2.731,84.4,0,109.4,13.64,-3.16,220.4
"2009-10-12 00:24:00",1319374,2.766,248.7,4.207,1.205,-1.938,98.73768,-3.916,-2.744,84.5,0,109.4,13.64,-3.18,210.7
"2009-10-12 00:24:30",1319375,3.501,250.3,6.687,1.218,-0.097,98.71248,-3.98,-2.522,84.9,0,109.4,13.64,-3.24,212.3
"2009-10-12 00:25:00",1319376,4.597,255.6,4.515,0.643,1.712,98.70992,-3.987,-2.537,84.9,0,109.4,13.65,-3.25,217.6
"2009-10-12 00:25:30",1319377,5.159,257.1,4.722,0.434,2.57,98.71215,-3.981,-2.567,85.1,0,109.4,13.65,-3.24,219.1
"2009-10-12 00:26:00",1319378,4.092,258.1,6.133,1.247,0.479,98.71294,-3.979,-2.594,85.1,0,109.4,13.65,-3.24,220.1
"2009-10-12 00:26:30",1319379,3.912,258.7,7.069,1.168,-0.22,98.69729,-4.019,-2.732,85.1,0,109.4,13.65,-3.28,220.7
"2009-10-12 00:27:00",1319380,3.71,256.4,5.787,1.108,-0.873,98.69019,-4.037,-2.706,85.3,0,109.4,13.65,-3.30,218.4
"2009-10-12 00:27:30",1319381,4.959,254.4,6.113,1.035,1.19,98.69801,-4.017,-2.682,85.4,0,109.4,13.65,-3.28,216.4
"2009-10-12 00:28:00",1319382,5.153,252.5,5.001,1.104,1.607,98.69969,-4.013,-2.581,85.6,0,109.4,13.65,-3.27,214.5
"2009-10-12 00:28:30",1319383,5.419,251.9,4.061,0.893,2.13,98.70081,-4.01,-2.577,85.7,0,109.4,13.65,-3.27,213.9
"2009-10-12 00:29:00",1319384,5.293,244.7,5.656,1.093,1.276,98.70136,-4.009,-2.711,85.7,0,109.4,13.64,-3.27,206.7
"2009-10-12 00:29:30",1319385,4.886,240.4,6.062,1.143,1.328,98.69711,-4.019,-2.7,85.8,0,109.4,13.64,-3.28,202.4
"2009-10-12 00:30:00",1319386,4.321,240.6,6.651,1.223,0.652,98.69535,-4.024,-2.758,85.9,0,109.4,13.64,-3.29,202.6
"2009-10-12 00:30:30",1319387,4.716,246.3,5.844,1.157,1.475,98.68855,-4.041,-2.736,85.9,0,109.4,13.64,-3.30,208.3
"2009-10-12 00:31:00",1319388,4.69,249.6,6.863,1.074,1.097,98.68343,-4.054,-2.753,86,0,109.4,13.64,-3.32,211.6
"2009-10-12 00:31:30",1319389,4.715,254.9,5.339,1.15,1.592,98.67664,-4.072,-2.722,86.1,0,109.4,13.64,-3.33,216.9
"2009-10-12 00:32:00",1319390,5.016,256.3,6.119,0.992,1.895,98.67465,-4.077,-2.756,86.1,0,109.4,13.64,-3.34,218.3
"2009-10-12 00:32:30",1319391,4.942,254.3,6.396,1.013,1.392,98.67436,-4.077,-2.771,86.2,0,109.3,13.64,-3.34,216.3
"2009-10-12 00:33:00",1319392,4.432,249.7,7.434,1.187,0.701,98.67436,-4.077,-2.786,86.3,0,109.3,13.64,-3.34,211.7
"2009-10-12 00:33:30",1319393,3.678,247.4,4.828,1.087,-0.002,98.67436,-4.077,-2.774,86.3,0,109.3,13.65,-3.34,209.4
"2009-10-12 00:34:00",1319394,4.335,254.2,6.375,1.175,1.224,98.67436,-4.077,-2.675,86.5,0,109.3,13.65,-3.34,216.2
"2009-10-12 00:34:30",1319395,4.383,254.8,7.273,1.053,1.291,98.67436,-4.077,-2.743,86.5,0,109.3,13.65,-3.34,216.8
"2009-10-12 00:35:00",1319396,4.017,256.4,5.844,1.123,1.316,98.67436,-4.077,-2.731,86.5,0,109.3,13.65,-3.34,218.4
"2009-10-12 00:35:30",1319397,3.72,253.5,7.329,1.122,0.238,98.67436,-4.077,-2.886,86.4,0,109.3,13.66,-3.34,215.5
"2009-10-12 00:36:00",1319398,3.58,255.2,6.032,1.183,0.382,98.67436,-4.077,-2.797,86.5,0,109.3,13.66,-3.34,217.2
"2009-10-12 00:36:30",1319399,2.233,252.2,5.217,0.942,-0.851,98.67436,-4.077,-2.823,86.5,0,109.3,13.66,-3.34,214.2
"2009-10-12 00:37:00",1319400,2.397,248.6,6.761,1.232,-0.645,98.67464,-4.077,-2.864,86.5,0,109.3,13.66,-3.34,210.6
"2009-10-12 00:37:30",1319401,3.081,258.9,5.898,1.062,0.906,98.67464,-4.077,-2.744,86.7,0,109.3,13.66,-3.34,220.9
"2009-10-12 00:38:00",1319402,2.596,269.1,9.35,1.112,0.268,98.67577,-4.074,-2.812,86.6,0,109.3,13.67,-3.34,231.1
"2009-10-12 00:38:30",1319403,2.271,283.7,5.759,1.184,-0.845,98.6822,-4.057,-2.942,86.4,0,109.3,13.67,-3.32,245.7
"2009-10-12 00:39:00",1319404,2.197,294.2,6.333,1.184,-1.111,98.68498,-4.05,-2.799,86.6,0,109.3,13.67,-3.31,256.2
"2009-10-12 00:39:30",1319405,1.896,294.1,5.817,1.075,-2.039,98.68862,-4.041,-2.909,86.6,0,109.3,13.67,-3.30,256.1
"2009-10-12 00:40:00",1319406,2.578,292.6,7.65,1.168,-0.142,98.68946,-4.039,-2.766,86.7,0,109.3,13.67,-3.30,254.6
"2009-10-12 00:40:30",1319407,2.359,287.6,5.98,1.234,-0.489,98.69029,-4.037,-2.793,86.7,0,109.3,13.67,-3.30,249.6
"2009-10-12 00:41:00",1319408,1.791,280.8,6.762,1.082,-1.064,98.68772,-4.043,-2.903,86.6,0,109.3,13.67,-3.31,242.8
"2009-10-12 00:41:30",1319409,1.767,288.2,7.835,1.104,-1.898,98.68284,-4.056,-2.879,86.6,0,109.3,13.67,-3.32,250.2
"2009-10-12 00:42:00",1319410,1.367,299,8.09,0.934,-2.31,98.68082,-4.061,-2.861,86.7,0,109.3,13.67,-3.32,261.0
"2009-10-12 00:42:30",1319411,2.467,317.8,5.771,1.215,-1.361,98.67825,-4.067,-2.873,86.7,0,109.3,13.67,-3.33,279.8
"2009-10-12 00:43:00",1319412,2.823,327,7.879,1.274,-0.829,98.67397,-4.078,-2.826,86.7,0,109.3,13.68,-3.34,289.0
"2009-10-12 00:43:30",1319413,3.129,331.1,6.143,1.192,-0.29,98.67171,-4.084,-2.763,86.7,0,109.3,13.68,-3.35,293.1
"2009-10-12 00:44:00",1319414,3.439,328.8,5.563,1.052,0.019,98.66805,-4.093,-2.802,86.7,0,109.3,13.68,-3.36,290.8
"2009-10-12 00:44:30",1319415,2.074,317.3,5.555,1.08,-2.365,98.67196,-4.083,-2.939,86.6,0,109.3,13.68,-3.35,279.3
"2009-10-12 00:45:00",1319416,2.059,312.1,6.413,1.087,-1.202,98.67112,-4.086,-2.868,86.7,0,109.3,13.68,-3.35,274.1
"2009-10-12 00:45:30",1319417,0.971,301.2,2.754,0.046,-2.964,98.67392,-4.078,-2.836,86.8,0,109.3,13.71,-3.34,263.2
"2009-10-12 00:46:00",1319418,2.381,300.9,6.58,1.223,-0.565,98.67363,-4.079,-2.886,86.7,0,109.3,13.67,-3.34,262.9
"2009-10-12 00:46:30",1319419,2.864,306.8,5.372,1.137,0.186,98.6725,-4.082,-2.796,86.9,0,109.3,13.67,-3.34,268.8
"2009-10-12 00:47:00",1319420,2.982,306.7,6.202,1.15,0.304,98.66541,-4.1,-2.766,86.9,0,109.3,13.67,-3.36,268.7
"2009-10-12 00:47:30",1319421,2.085,303.3,5.029,1.047,-1.152,98.65238,-4.133,-2.858,86.8,0,109.3,13.67,-3.40,265.3
"2009-10-12 00:48:00",1319422,1.529,285.2,7.248,0.913,-1.897,98.64076,-4.163,-2.877,86.8,0,109.3,13.68,-3.43,247.2
"2009-10-12 00:48:30",1319423,2.451,259.4,12.71,1.272,-0.803,98.63991,-4.165,-2.937,86.8,0,109.3,13.68,-3.43,221.4
"2009-10-12 00:49:00",1319424,2.333,238.4,7.641,1.246,-0.705,98.63991,-4.165,-2.855,86.9,0,109.3,13.68,-3.43,200.4
"2009-10-12 00:49:30",1319425,3.718,237.3,6.936,1.119,1.164,98.63991,-4.165,-2.82,87,0,109.3,13.68,-3.43,199.3
"2009-10-12 00:50:00",1319426,3.859,239.3,6.512,1.061,1.472,98.63991,-4.165,-2.839,87,0,109.3,13.68,-3.43,201.3
"2009-10-12 00:50:30",1319427,3.749,235.2,6.806,1.124,0.561,98.63991,-4.165,-2.885,87,0,109.3,13.68,-3.43,197.2
"2009-10-12 00:51:00",1319428,3.008,232.9,5.862,1.047,-0.425,98.63623,-4.174,-2.878,87,0,109.3,13.68,-3.44,194.9
"2009-10-12 00:51:30",1319429,4.084,237.4,5.577,1.117,1.192,98.62772,-4.196,-2.912,87,0,109.3,13.68,-3.46,199.4
"2009-10-12 00:52:00",1319430,2.9,233.9,6.173,0.892,-0.403,98.61839,-4.22,-2.956,87,0,109.3,13.69,-3.48,195.9
"2009-10-12 00:52:30",1319431,4.085,246.2,6.165,1.042,1.644,98.61271,-4.234,-2.865,87.2,0,109.3,13.69,-3.50,208.2
"2009-10-12 00:53:00",1319432,3.777,249.8,5.197,1.156,1.444,98.6113,-4.238,-2.843,87.2,0,109.3,13.69,-3.50,211.8
"2009-10-12 00:53:30",1319433,3.484,248,5.186,1.142,1.086,98.60902,-4.244,-2.856,87.3,0,109.3,13.69,-3.51,210.0
"2009-10-12 00:54:00",1319434,2.713,242.2,7.12,1.136,-0.05,98.60844,-4.245,-2.885,87.3,0,109.3,13.69,-3.51,204.2
"2009-10-12 00:54:30",1319435,3.299,243,6.076,1.066,0.38,98.61011,-4.241,-3.022,87.2,0,109.3,13.69,-3.50,205.0
"2009-10-12 00:55:00",1319436,1.643,233,3.155,0.759,-1.566,98.61485,-4.229,-2.993,87.3,0,109.3,13.69,-3.49,195.0
"2009-10-12 00:55:30",1319437,2.906,233.7,6.956,1.136,0.685,98.62128,-4.213,-2.839,87.5,0,109.3,13.69,-3.48,195.7
"2009-10-12 00:56:00",1319438,3.258,232.9,6.144,1.065,1.457,98.62436,-4.205,-2.852,87.5,0,109.3,13.7,-3.47,194.9
"2009-10-12 00:56:30",1319439,3.466,233.9,5.363,0.964,1.66,98.62855,-4.194,-2.924,87.5,0,109.3,13.7,-3.46,195.9
"2009-10-12 00:57:00",1319440,2.611,230.3,5.839,1.115,-0.664,98.62771,-4.196,-3.013,87.4,0,109.3,13.7,-3.46,192.3
"2009-10-12 00:57:30",1319441,2.768,235.9,6.656,1.175,0.222,98.63023,-4.19,-2.962,87.5,0,109.3,13.7,-3.45,197.9
"2009-10-12 00:58:00",1319442,2.889,235.8,5.889,1.236,-0.003,98.63107,-4.188,-2.981,87.5,0,109.3,13.7,-3.45,197.8
"2009-10-12 00:58:30",1319443,3.629,240.4,5.11,1.098,1.825,98.63107,-4.188,-2.852,87.7,0,109.3,13.7,-3.45,202.4
"2009-10-12 00:59:00",1319444,3.574,244,6.009,1.111,1.795,98.63246,-4.184,-2.866,87.7,0,109.3,13.7,-3.45,206.0
"2009-10-12 00:59:30",1319445,3.425,248.1,6.184,0.948,1.581,98.63302,-4.183,-2.897,87.6,0,109.3,13.7,-3.45,210.1
"2009-10-12 01:00:00",1319446,2.401,245,7.278,1.165,-0.311,98.63638,-4.174,-2.978,87.6,0,109.3,13.7,-3.44,207.0
"2009-10-12 01:00:30",1319447,1.139,245.5,6.193,0.59,-2.249,98.63778,-4.171,-3.077,87.5,0,109.3,13.7,-3.43,207.5
"2009-10-12 01:01:00",1319448,1.257,268.3,6.585,1.073,-1.626,98.63721,-4.172,-3.061,87.5,0,109.3,13.7,-3.43,230.3
"2009-10-12 01:01:30",1319449,2.225,297,8.16,1.117,0.364,98.63892,-4.168,-2.837,87.7,0,109.2,13.7,-3.43,259.0
"2009-10-12 01:02:00",1319450,2.447,306.6,6.888,1.182,-0.079,98.63948,-4.166,-2.972,87.6,0,109.3,13.7,-3.43,268.6
"2009-10-12 01:02:30",1319451,2.653,314.1,6.064,1.154,-0.796,98.64059,-4.163,-2.987,87.6,0,109.3,13.7,-3.43,276.1
"2009-10-12 01:03:00",1319452,2.746,317.1,6.804,1.215,-1.063,98.6403,-4.164,-2.867,87.7,0,109.3,13.7,-3.43,279.1
"2009-10-12 01:03:30",1319453,2.672,314.6,6.209,1.122,-2.182,98.64059,-4.163,-3.048,87.6,0,109.3,13.7,-3.43,276.6
"2009-10-12 01:04:00",1319454,2.359,312.3,4.884,0.97,-2.492,98.64002,-4.165,-2.949,87.7,0,109.3,13.7,-3.43,274.3
"2009-10-12 01:04:30",1319455,3.324,318.9,5.844,1.154,0.281,98.63945,-4.166,-2.857,87.9,0,109.3,13.7,-3.43,280.9
"2009-10-12 01:05:00",1319456,2.751,312.4,8.09,1.196,0.094,98.63945,-4.166,-2.885,87.8,0,109.3,13.7,-3.43,274.4
"2009-10-12 01:05:30",1319457,1.549,297.5,8.55,1.169,-1.472,98.63945,-4.166,-3.048,87.7,0,109.3,13.7,-3.43,259.5
"2009-10-12 01:06:00",1319458,1.491,293.4,6.174,1.117,-0.646,98.63945,-4.166,-2.857,87.8,0,109.3,13.7,-3.43,255.4
"2009-10-12 01:06:30",1319459,1.619,298.8,3.512,1.126,-2.024,98.63945,-4.166,-3.028,87.7,0,109.3,13.7,-3.43,260.8
"2009-10-12 01:07:00",1319460,0.835,303.5,1.146,0.049,-3.632,98.63945,-4.166,-3.005,87.7,0,109.3,13.74,-3.43,265.5
"2009-10-12 01:07:30",1319461,2.108,311.9,6.258,1.277,-1.303,98.63945,-4.166,-2.875,87.8,0,109.3,13.71,-3.43,273.9
"2009-10-12 01:08:00",1319462,2.775,311.8,6.131,1.178,-0.197,98.63945,-4.166,-2.843,87.8,0,109.3,13.71,-3.43,273.8
"2009-10-12 01:08:30",1319463,2.912,304.9,7.517,1.128,-0.639,98.63945,-4.166,-2.931,87.7,0,109.3,13.71,-3.43,266.9
"2009-10-12 01:09:00",1319464,2.528,290.7,7.981,1.048,-1.003,98.63747,-4.171,-2.895,87.8,0,109.3,13.71,-3.43,252.7
"2009-10-12 01:09:30",1319465,2.757,277.3,11.34,1.113,0.066,98.6233,-4.207,-2.884,87.8,0,109.3,13.71,-3.47,239.3
"2009-10-12 01:10:00",1319466,2.119,258.7,13.04,1.201,-1.321,98.61933,-4.218,-3.054,87.6,0,109.3,13.71,-3.48,220.7
"2009-10-12 01:10:30",1319467,2.444,249.7,9.05,1.161,0.056,98.6114,-4.238,-2.86,87.8,0,109.3,13.71,-3.50,211.7
"2009-10-12 01:11:00",1319468,2.321,238.2,5.777,1.152,0.131,98.60629,-4.251,-2.888,87.8,0,109.2,13.71,-3.51,200.2
"2009-10-12 01:11:30",1319469,1.194,251.4,8.91,1.032,-1.981,98.60545,-4.253,-3.012,87.6,0,109.3,13.71,-3.52,213.4
"2009-10-12 01:12:00",1319470,1.63,300.9,10.74,1.136,-1.598,98.60545,-4.253,-3.038,87.6,0,109.2,13.71,-3.52,262.9
"2009-10-12 01:12:30",1319471,2.32,312.9,5.154,1.256,-1.528,98.60545,-4.253,-2.921,87.8,0,109.3,13.71,-3.52,274.9
"2009-10-12 01:13:00",1319472,3.202,316.3,6.785,1.131,-1.744,98.60545,-4.253,-3.08,87.6,0,109.2,13.71,-3.52,278.3
"2009-10-12 01:13:30",1319473,3.448,313.2,5.817,1.165,-0.388,98.60545,-4.253,-2.866,87.9,0,109.2,13.71,-3.52,275.2
"2009-10-12 01:14:00",1319474,3.281,297.8,7.04,0.981,0.467,98.60402,-4.256,-2.979,87.8,0,109.2,13.71,-3.52,259.8
"2009-10-12 01:14:30",1319475,2.87,265.9,16.06,1.07,0.61,98.59807,-4.272,-2.956,87.9,0,109.2,13.71,-3.53,227.9
"2009-10-12 01:15:00",1319476,2.146,225.2,11.26,0.905,-1.327,98.58587,-4.303,-3.102,87.8,0,109.3,13.71,-3.57,187.2
"2009-10-12 01:15:30",1319477,2.958,221.2,9.29,1.197,-0.124,98.57482,-4.331,-2.943,87.9,0,109.2,13.71,-3.59,183.2
"2009-10-12 01:16:00",1319478,1.486,229,9.84,0.795,-1.553,98.5731,-4.335,-3.043,87.9,0,109.2,13.71,-3.60,191.0
"2009-10-12 01:16:30",1319479,1.342,261.5,10.82,0.957,-1.523,98.57449,-4.332,-3.092,87.9,0,109.2,13.71,-3.59,223.5
"2009-10-12 01:17:00",1319480,2.671,297.4,5.968,1.142,0.906,98.57645,-4.327,-2.939,88,0,109.2,13.72,-3.59,259.4
"2009-10-12 01:17:30",1319481,2.988,309.4,4.787,0.923,1.36,98.57925,-4.32,-2.931,88.1,0,109.2,13.72,-3.58,271.4
"2009-10-12 01:18:00",1319482,2.406,303.7,5.958,1.088,0.013,98.58204,-4.312,-3.03,88,0,109.2,13.71,-3.58,265.7
"2009-10-12 01:18:30",1319483,0.962,257.8,15.74,0.439,-2.895,98.58288,-4.31,-3.208,87.9,0,109.2,13.71,-3.57,219.8
"2009-10-12 01:19:00",1319484,2.435,230.9,5.461,1.248,-1.007,98.58624,-4.302,-3.098,88,0,109.2,13.71,-3.56,192.9
"2009-10-12 01:19:30",1319485,2.636,221.9,4.364,1.21,-1.006,98.58875,-4.295,-3.064,88.1,0,109.2,13.71,-3.56,183.9
"2009-10-12 01:20:00",1319486,3.594,227.4,5.955,1.222,1.339,98.58679,-4.3,-3.012,88.2,0,109.2,13.71,-3.56,189.4
"2009-10-12 01:20:30",1319487,4.022,235.2,5.535,0.844,2.093,98.58763,-4.298,-2.966,88.2,0,109.2,13.71,-3.56,197.2
"2009-10-12 01:21:00",1319488,3.36,250.4,7.201,1.098,1.255,98.58817,-4.297,-3.011,88.2,0,109.2,13.71,-3.56,212.4
"2009-10-12 01:21:30",1319489,2.232,265.1,6.877,1.202,-0.437,98.58449,-4.306,-3.234,88.1,0,109.2,13.71,-3.57,227.1
"2009-10-12 01:22:00",1319490,1.735,275.9,5.411,0.903,-1.317,98.57769,-4.324,-3.139,88.2,0,109.2,13.71,-3.59,237.9
"2009-10-12 01:22:30",1319491,2.488,279.2,6.094,1.208,-0.045,98.58019,-4.317,-3.113,88.2,0,109.2,13.71,-3.58,241.2
"2009-10-12 01:23:00",1319492,2.73,280.9,7.036,1.242,-0.126,98.5779,-4.323,-3.19,88.2,0,109.2,13.72,-3.59,242.9
"2009-10-12 01:23:30",1319493,3.28,276,6.063,1.093,0.747,98.57616,-4.327,-3.014,88.4,0,109.2,13.73,-3.59,238.0
"2009-10-12 01:24:00",1319494,3.066,273.4,6.575,1.053,0.117,98.57645,-4.327,-3.045,88.4,0,109.2,13.73,-3.59,235.4
"2009-10-12 01:24:30",1319495,2.929,272.1,6.81,1.118,0.459,98.57276,-4.336,-3.099,88.3,0,109.2,13.73,-3.60,234.1
"2009-10-12 01:25:00",1319496,1.842,269.1,6.958,1.023,-0.999,98.57304,-4.335,-3.103,88.4,0,109.2,13.73,-3.60,231.1
"2009-10-12 01:25:30",1319497,2.263,277.6,6.873,1.196,-0.73,98.57217,-4.338,-3.158,88.3,0,109.2,13.73,-3.60,239.6
"2009-10-12 01:26:00",1319498,2.514,281.5,5.586,1.227,0.076,98.56795,-4.348,-3.074,88.4,0,109.2,13.73,-3.61,243.5
"2009-10-12 01:26:30",1319499,2.03,279.9,6.386,1.148,-1.461,98.56594,-4.353,-3.158,88.4,0,109.2,13.73,-3.62,241.9
"2009-10-12 01:27:00",1319500,2.494,286.9,6.751,1.141,-0.082,98.56368,-4.359,-3.006,88.5,0,109.2,13.73,-3.62,248.9
"2009-10-12 01:27:30",1319501,2.152,292.1,5.813,1.135,-0.743,98.56368,-4.359,-3.087,88.5,0,109.3,13.73,-3.62,254.1
"2009-10-12 01:28:00",1319502,0.742,288.5,3.795,0.109,-2.815,98.56312,-4.361,-3.104,88.5,0,109.2,13.76,-3.62,250.5
"2009-10-12 01:28:30",1319503,1.542,287.8,11.75,1.24,-1.011,98.56396,-4.359,-3.17,88.4,0,109.3,13.73,-3.62,249.8
"2009-10-12 01:29:00",1319504,1.569,272.4,13.99,1.244,-0.448,98.56507,-4.356,-3.052,88.6,0,109.3,13.73,-3.62,234.4
"2009-10-12 01:29:30",1319505,1.681,278.9,9.19,1.181,-0.486,98.56564,-4.354,-3.185,88.5,0,109.3,13.73,-3.62,240.9
"2009-10-12 01:30:00",1319506,1.683,286.2,6.348,1.118,-2.155,98.56843,-4.347,-3.214,88.5,0,109.3,13.73,-3.61,248.2
"2009-10-12 01:30:30",1319507,3.078,285,8.21,1.137,-0.643,98.56675,-4.351,-3.058,88.7,0,109.3,13.73,-3.61,247.0
"2009-10-12 01:31:00",1319508,3.633,270.3,6.356,1.089,0.302,98.56703,-4.351,-3.047,88.7,0,109.3,13.74,-3.61,232.3
"2009-10-12 01:31:30",1319509,2.682,248.3,8.21,0.978,-1.659,98.56955,-4.344,-3.185,88.6,0,109.3,13.73,-3.61,210.3
"2009-10-12 01:32:00",1319510,3.872,238.2,7.046,1.089,1.039,98.57039,-4.342,-3.035,88.8,0,109.3,13.73,-3.61,200.2
"2009-10-12 01:32:30",1319511,3.255,230.1,6.116,1.223,0.573,98.56955,-4.344,-3.035,88.8,0,109.3,13.73,-3.61,192.1
"2009-10-12 01:33:00",1319512,2.2,226.3,2.818,0.593,-2.089,98.57094,-4.341,-3.255,88.6,0,109.3,13.73,-3.60,188.3
"2009-10-12 01:33:30",1319513,3.671,238.1,5.54,1.129,1.295,98.57094,-4.341,-3.051,88.8,0,109.3,13.73,-3.60,200.1
"2009-10-12 01:34:00",1319514,3.26,244.6,6.161,1.12,0.746,98.57094,-4.341,-3.102,88.8,0,109.3,13.73,-3.60,206.6
"2009-10-12 01:34:30",1319515,3.33,253.4,8.03,1.165,1.192,98.57094,-4.341,-3.118,88.8,0,109.3,13.73,-3.60,215.4
"2009-10-12 01:35:00",1319516,3.01,257.7,5.823,1.223,0.963,98.57094,-4.341,-3.044,88.9,0,109.3,13.73,-3.60,219.7
"2009-10-12 01:35:30",1319517,3.052,265.1,4.854,1.157,0.126,98.57094,-4.341,-3.178,88.8,0,109.2,13.73,-3.60,227.1
"2009-10-12 01:36:00",1319518,2.59,262.9,4.959,1.116,-1.003,98.57094,-4.341,-3.237,88.7,0,109.2,13.73,-3.60,224.9
"2009-10-12 01:36:30",1319519,3.338,267.9,5.718,1.085,1.337,98.57094,-4.341,-3.037,88.9,0,109.3,13.73,-3.60,229.9
"2009-10-12 01:37:00",1319520,3.164,263.4,6.628,1.181,1.1,98.57094,-4.341,-3.06,88.9,0,109.3,13.73,-3.60,225.4
"2009-10-12 01:37:30",1319521,3.061,255.8,5.896,1.228,0.7,98.57094,-4.341,-3.108,88.9,0,109.3,13.73,-3.60,217.8
"2009-10-12 01:38:00",1319522,3.443,250.5,5.374,1.158,0.854,98.57094,-4.341,-3.044,89,0,109.2,13.73,-3.60,212.5
"2009-10-12 01:38:30",1319523,2.566,237.5,6.84,1.128,-1.116,98.57094,-4.341,-3.157,88.9,0,109.2,13.73,-3.60,199.5
"2009-10-12 01:39:00",1319524,2.597,232.3,5.877,1.095,-0.858,98.57094,-4.341,-3.089,89,0,109.2,13.73,-3.60,194.3
"2009-10-12 01:39:30",1319525,3.251,232.4,6.44,1.111,0.961,98.57094,-4.341,-3.039,89,0,109.2,13.73,-3.60,194.4
"2009-10-12 01:40:00",1319526,3.297,229.5,5.729,1.142,1.598,98.57236,-4.337,-3.007,89.1,0,109.2,13.74,-3.60,191.5
"2009-10-12 01:40:30",1319527,3.508,232.4,6.057,1.16,1.538,98.5769,-4.326,-3.032,89,0,109.2,13.74,-3.59,194.4
"2009-10-12 01:41:00",1319528,3.119,231.2,6.862,1.219,0.491,98.58086,-4.315,-3.012,89.1,0,109.2,13.74,-3.58,193.2
"2009-10-12 01:41:30",1319529,2.4,228.1,4.855,1.018,-0.89,98.58823,-4.297,-3.142,89,0,109.2,13.74,-3.56,190.1
"2009-10-12 01:42:00",1319530,2.707,231.6,6.978,1.117,-0.412,98.59447,-4.281,-3.059,89,0,109.2,13.74,-3.54,193.6
"2009-10-12 01:42:30",1319531,3.442,236.8,6.124,1.089,1.268,98.60156,-4.263,-3.031,89,0,109.2,13.74,-3.53,198.8
"2009-10-12 01:43:00",1319532,3.481,240.6,5.811,1.093,1.702,98.60439,-4.256,-2.997,89.1,0,109.2,13.74,-3.52,202.6
"2009-10-12 01:43:30",1319533,3.323,247.8,6.106,1.175,1.305,98.60497,-4.254,-3.016,89.1,0,109.2,13.74,-3.52,209.8
"2009-10-12 01:44:00",1319534,3.153,258.8,6.878,1.184,0.787,98.60497,-4.254,-2.953,89.1,0,109.2,13.74,-3.52,220.8
"2009-10-12 01:44:30",1319535,1.788,255.4,2.732,0.439,-1.964,98.60497,-4.254,-3.119,88.9,0,109.2,13.74,-3.52,217.4
"2009-10-12 01:45:00",1319536,2.849,254.9,5.367,1.2,0.33,98.60497,-4.254,-3.068,88.9,0,109.2,13.74,-3.52,216.9
"2009-10-12 01:45:30",1319537,2.632,236.5,7.849,1.187,0.257,98.60497,-4.254,-2.959,89,0,109.2,13.74,-3.52,198.5